Showing default

DRAGRACER 2(AUGURY), 46955

Orbit data source: Space-Track

DRAGRACER 2(AUGURY), 46955 is a payload satellite owned by TriSept (US) in SSO that was launched on Fri, 20 Nov 2020 UTC via an ELECTRON launch vehicle from the Rocket Lab Launch Complex (RLLC). Payload-class satellites include a variety of spacecraft equipped with specific instruments for various scientific and technological missions. These include communications satellites like Starlink; space stations such as the ISS; scientific satellites like the Hubble; Earth observation satellites from companies like Planet Labs, Umbra, and HawkEye 360; GPS; miniature CubeSats for education and research; and military/defense satellites.

Loading next visibility...
Identifier
46955, 2020-085AC
Orbit
SSO
Country
Flag of USUS
Related business
Manufacturer
Millenium ES
Mission
Operational Commercial Technology
Bus & Motor
CUBESAT 6U, Unknown motor
Mass
12 kg wet, 12 kg dry
Launch date (UTC)
2020-11-20 (5 years ago)
Launch vehicle
ELECTRON
Launch site
Rocket Lab Launch Complex (RLLC)
Object type
Payload
Rocket body
Debris
Shape & HBR
Box, Unknown HBR
Radar Cross Section
0.080 m², Medium (>0.1 m² and < 1m²)

Expand to show TLE details & history
Last TLE update: 1 day ago

TLE from 1 day ago
0 DRAGRACER 2(AUGURY)
1 46955U 20085AC  25242.04492315  .00021041  00000-0  34757-3 0  9994
2 46955  97.5837  52.9427 0006188 259.5716 100.4839 15.52256447266445
Epoch: 2025-08-30T01:04Z
TLE epoch observation values (Epoch: 2025-08-30T01:04:41.36Z)
Latitude
0.00002°
Longitude
58.2855°
Altitude
414.035 km
Speed
7.662 km/s
True Right ascension
03h 31m 46s
True Declination
0° 00' 00"
Sunlit
Object was in daylight at epoch
Visualization orbit readout
Latitude
Unknown
Longitude
Unknown
Altitude
Unknown
Speed
Unknown
Apparent Right ascension
Unknown
Apparent Declination
Unknown
Sunlit
N/A
Visualization observer readout
Local Sidereal Time
16:54:52
Azimuth
Unknown
Elevation
Unknown
Doppler factor
Unknown
Orbital elements
Apogee altitude
411.269 km
Perigee altitude
402.872 km
Semi-major axis
6,785.207 km
Eccentricity
0.00062
Inclination
97.5837°
RAAN
52.9427°
Arg. of periapsis
259.5716°
True anomaly
100.55362°
Mean anomaly
100.4839°
Eccentric anomaly
100.51876°
Mean motion
3.88328 °/min
Orbital period
92.71 mins
BSTAR
0.00034757
Loading maneuver chart data...
Computing Atmospheric mass density...

Documentation

Showing up to 5 results
|